�v������,���r���O(���x),�����t���O,���r���O(���x),�����t���O,��1(���x),�����t���O,��2���x),�����t���O,�������x,�����t���O
7/1/2003 0:00,27.7,1,68.8,1,27,1,26.9,1,25.1,1
7/1/2003 0:15,27.6,1,68.6,1,27,1,26.9,1,25.2,1
7/1/2003 0:30,27.6,1,68.8,1,27,1,26.9,1,25.2,1
7/1/2003 0:45,27.6,1,68.7,1,27,1,26.9,1,25.2,1
7/1/2003 1:00,27.6,1,68.4,1,27,1,26.9,1,25.2,1
7/1/2003 1:15,27.6,1,68.6,1,27,1,26.9,1,25.2,1
7/1/2003 1:30,27.6,1,68.7,1,26.9,1,26.9,1,25.3,1
7/1/2003 1:45,27.6,1,68.8,1,26.9,1,26.8,1,25.3,1
7/1/2003 2:00,27.6,1,68.8,1,26.9,1,26.8,1,25.3,1
7/1/2003 2:15,27.6,1,68.8,1,26.9,1,26.8,1,25.3,1
7/1/2003 2:30,27.6,1,68.9,1,26.9,1,26.8,1,25.3,1
7/1/2003 2:45,27.6,1,68.8,1,26.9,1,26.8,1,25.3,1
7/1/2003 3:00,27.6,1,68.8,1,26.9,1,26.8,1,25.4,1
7/1/2003 3:15,27.6,1,69.1,1,26.9,1,26.8,1,25.4,1
7/1/2003 3:30,27.6,1,69.1,1,26.9,1,26.8,1,25.4,1
7/1/2003 3:45,27.6,1,69.3,1,26.9,1,26.8,1,25.4,1
7/1/2003 4:00,27.6,1,69.2,1,26.9,1,26.8,1,25.4,1
7/1/2003 4:15,27.6,1,69,1,26.9,1,26.8,1,25.5,1
7/1/2003 4:30,27.6,1,69.1,1,26.9,1,26.8,1,25.5,1
7/1/2003 4:45,27.6,1,68.7,1,26.9,1,26.8,1,24.9,1
7/1/2003 5:00,27.6,1,68.9,1,26.9,1,26.8,1,24.5,1
7/1/2003 5:15,27.6,1,68.7,1,26.9,1,26.8,1,24.5,1
7/1/2003 5:30,27.6,1,68.4,1,26.9,1,26.9,1,24.5,1
7/1/2003 5:45,27.6,1,68.3,1,26.9,1,26.9,1,24.5,1
7/1/2003 6:00,27.6,1,68.1,1,26.9,1,26.9,1,24.5,1
7/1/2003 6:15,27.6,1,67.3,1,26.9,1,26.9,1,24.6,1
7/1/2003 6:30,27.6,1,67.1,1,26.9,1,27,1,24.7,1
7/1/2003 6:45,27.6,1,66.1,1,26.9,1,27,1,24.7,1
7/1/2003 7:00,27.5,1,65.2,1,26.9,1,26.9,1,24.7,1
7/1/2003 7:15,27.4,1,64,1,26.8,1,26.9,1,24.7,1
7/1/2003 7:30,27.4,1,63.7,1,26.8,1,26.9,1,24.7,1
7/1/2003 7:45,27.3,1,62.5,1,26.8,1,26.8,1,24.7,1
7/1/2003 8:00,27.4,1,62.1,1,26.7,1,26.7,1,24.7,1
7/1/2003 8:15,27.4,1,61.9,1,26.7,1,26.7,1,24.7,1
7/1/2003 8:30,27.3,1,61.5,1,26.7,1,26.6,1,24.7,1
7/1/2003 8:45,27.3,1,61.5,1,26.7,1,26.6,1,24.8,1
7/1/2003 9:00,27.3,1,61.2,1,26.6,1,26.5,1,24.5,1
7/1/2003 9:15,27.2,1,60.7,1,26.6,1,26.5,1,24.5,1
7/1/2003 9:30,27.3,1,60.4,1,26.6,1,26.4,1,24.5,1
7/1/2003 9:45,27.2,1,60.7,1,26.6,1,26.4,1,24.6,1
7/1/2003 10:00,27.1,1,61.1,1,26.6,1,26.4,1,24.6,1
7/1/2003 10:15,27.1,1,62,1,26.5,1,26.3,1,24.6,1
7/1/2003 10:30,27.1,1,62,1,26.5,1,26.3,1,24.6,1
7/1/2003 10:45,26.9,1,62.9,1,26.5,1,26.3,1,24.6,1
7/1/2003 11:00,26.8,1,63,1,26.5,1,26.2,1,24.6,1
7/1/2003 11:15,27,1,62.9,1,26.5,1,26.2,1,24.7,1
7/1/2003 11:30,27.1,1,63,1,26.5,1,26.2,1,24.7,1
7/1/2003 11:45,27,1,63.6,1,26.5,1,26.2,1,25.2,1
7/1/2003 12:00,27,1,63.9,1,26.5,1,26.2,1,25.4,1
7/1/2003 12:15,27,1,64,1,26.5,1,26.1,1,25.4,1
7/1/2003 12:30,26.9,1,63.9,1,26.5,1,26.1,1,25.3,1
7/1/2003 12:45,27,1,64,1,26.5,1,26.1,1,25.3,1
7/1/2003 13:00,27.1,1,64.2,1,26.5,1,26.1,1,25.3,1
7/1/2003 13:15,27.1,1,64.5,1,26.5,1,26.2,1,25.3,1
7/1/2003 13:30,27.1,1,64.7,1,26.5,1,26.2,1,25.3,1
7/1/2003 13:45,27.1,1,64.9,1,26.5,1,26.2,1,25.3,1
7/1/2003 14:00,27.1,1,65,1,26.5,1,26.2,1,25.3,1
7/1/2003 14:15,27.1,1,65.2,1,26.5,1,26.2,1,25.4,1
7/1/2003 14:30,27.1,1,65.3,1,26.5,1,26.2,1,25.4,1
7/1/2003 14:45,27.1,1,65.4,1,26.5,1,26.2,1,25.4,1
7/1/2003 15:00,27.1,1,65.4,1,26.5,1,26.2,1,25.4,1
7/1/2003 15:15,27.1,1,65.4,1,26.5,1,26.2,1,25.4,1
7/1/2003 15:30,27.1,1,65.5,1,26.5,1,26.2,1,25.4,1
7/1/2003 15:45,27.1,1,65.5,1,26.5,1,26.2,1,25.4,1
7/1/2003 16:00,27,1,65.4,1,26.5,1,26.2,1,25.5,1
7/1/2003 16:15,27,1,65.4,1,26.5,1,26.2,1,25.1,1
7/1/2003 16:30,27,1,65.6,1,26.5,1,26.2,1,25.1,1
7/1/2003 16:45,26.8,1,64.8,1,26.5,1,26.2,1,25.1,1
7/1/2003 17:00,26.9,1,64.4,1,26.5,1,26.2,1,25.1,1
7/1/2003 17:15,26.9,1,64.2,1,26.5,1,26.2,1,25.1,1
7/1/2003 17:30,26.9,1,64.4,1,26.4,1,26.1,1,25.1,1
7/1/2003 17:45,26.9,1,64.9,1,26.4,1,26.1,1,25.2,1
7/1/2003 18:00,27,1,65.3,1,26.4,1,26.2,1,24.7,1
7/1/2003 18:15,27,1,65.4,1,26.5,1,26.3,1,24.7,1
7/1/2003 18:30,27,1,65.4,1,26.5,1,26.4,1,24.4,1
7/1/2003 18:45,27,1,64.8,1,26.5,1,26.5,1,24.4,1
7/1/2003 19:00,27,1,64.3,1,26.5,1,26.5,1,24.4,1
7/1/2003 19:15,27,1,64.9,1,26.5,1,26.5,1,24.4,1
7/1/2003 19:30,27,1,63.7,1,26.6,1,26.5,1,24.4,1
7/1/2003 19:45,27.1,1,63.4,1,26.6,1,26.4,1,24.4,1
7/1/2003 20:00,27.1,1,62.7,1,26.7,1,26.4,1,24.5,1
7/1/2003 20:15,27.2,1,64.7,1,26.8,1,26.5,1,24.5,1
7/1/2003 20:30,27.2,1,65.1,1,26.8,1,26.5,1,24.5,1
7/1/2003 20:45,27.2,1,65,1,26.8,1,26.5,1,24.5,1
7/1/2003 21:00,27.2,1,65,1,26.8,1,26.4,1,24.5,1
7/1/2003 21:15,27.2,1,64.8,1,26.8,1,26.4,1,24.5,1
7/1/2003 21:30,27.2,1,64.7,1,26.9,1,26.4,1,24.6,1
7/1/2003 21:45,27.2,1,64.9,1,27,1,26.4,1,24.6,1
7/1/2003 22:00,27.1,1,65,1,27,1,26.5,1,24.7,1
7/1/2003 22:15,27.1,1,64.3,1,27,1,26.5,1,24.6,1
7/1/2003 22:30,27,1,63.7,1,27,1,26.5,1,24.7,1
7/1/2003 22:45,27.1,1,64.3,1,26.9,1,26.5,1,24.7,1
7/1/2003 23:00,27.1,1,66.2,1,26.9,1,26.5,1,24.7,1
7/1/2003 23:15,27,1,66,1,26.9,1,26.6,1,24.7,1
7/1/2003 23:30,27,1,65.6,1,26.8,1,26.6,1,24.7,1
7/1/2003 23:45,27.1,1,64.8,1,26.8,1,26.6,1,24.7,1
7/2/2003 0:00,27.1,1,64.6,1,26.8,1,26.6,1,24.7,1
7/2/2003 0:15,27.1,1,64.7,1,26.7,1,26.6,1,24.7,1
7/2/2003 0:30,27.1,1,65,1,26.7,1,26.5,1,24.8,1
7/2/2003 0:45,27.1,1,65.2,1,26.7,1,26.5,1,24.8,1
7/2/2003 1:00,27.1,1,65.5,1,26.7,1,26.5,1,24.8,1
7/2/2003 1:15,27.1,1,66.2,1,26.7,1,26.5,1,24.8,1
7/2/2003 1:30,27.1,1,66.3,1,26.6,1,26.5,1,24.8,1
7/2/2003 1:45,27.1,1,66.5,1,26.6,1,26.5,1,24.9,1
7/2/2003 2:00,27.1,1,66.6,1,26.6,1,26.5,1,24.9,1
7/2/2003 2:15,27.1,1,66.6,1,26.6,1,26.5,1,24.9,1
7/2/2003 2:30,27.1,1,66.6,1,26.6,1,26.5,1,24.9,1
7/2/2003 2:45,27.1,1,66.6,1,26.6,1,26.5,1,24.9,1
7/2/2003 3:00,27.1,1,66.6,1,26.6,1,26.5,1,24.9,1
7/2/2003 3:15,27,1,66.8,1,26.6,1,26.5,1,24.9,1
7/2/2003 3:30,27,1,66.7,1,26.6,1,26.4,1,25,1
7/2/2003 3:45,27,1,66.7,1,26.6,1,26.4,1,25,1
7/2/2003 4:00,27,1,66.8,1,26.5,1,26.4,1,25,1
7/2/2003 4:15,27,1,66.7,1,26.5,1,26.4,1,25,1
7/2/2003 4:30,27,1,66.7,1,26.5,1,26.4,1,25,1
7/2/2003 4:45,27,1,66.7,1,26.5,1,26.4,1,25,1
7/2/2003 5:00,27,1,66.6,1,26.5,1,26.3,1,25,1
7/2/2003 5:15,27,1,66.6,1,26.5,1,26.3,1,25.1,1
7/2/2003 5:30,27,1,66.7,1,26.5,1,26.3,1,25.1,1
7/2/2003 5:45,27,1,66.9,1,26.5,1,26.3,1,25.1,1
7/2/2003 6:00,27,1,66.8,1,26.5,1,26.3,1,25.1,1
7/2/2003 6:15,27.1,1,65.6,1,26.5,1,26.3,1,25.1,1
7/2/2003 6:30,27,1,65.4,1,26.5,1,26.3,1,24.2,1
7/2/2003 6:45,26.9,1,65.4,1,26.5,1,26.3,1,24.2,1
7/2/2003 7:00,26.9,1,65.3,1,26.4,1,26.3,1,24.2,1
7/2/2003 7:15,26.9,1,65.3,1,26.4,1,26.2,1,24.2,1
7/2/2003 7:30,26.9,1,65.2,1,26.4,1,26.2,1,24.2,1
7/2/2003 7:45,26.9,1,65,1,26.4,1,26.2,1,24.3,1
7/2/2003 8:00,27,1,64.2,1,26.4,1,26.2,1,24,1
7/2/2003 8:15,26.9,1,63.9,1,26.4,1,26.1,1,23.6,1
7/2/2003 8:30,26.9,1,64.5,1,26.4,1,25.9,1,23.7,1
7/2/2003 8:45,26.9,1,64,1,26.4,1,25.5,1,23.7,1
7/2/2003 9:00,26.8,1,63.8,1,26.4,1,25.2,1,23.7,1
7/2/2003 9:15,26.8,1,63.4,1,26.4,1,25,1,23.7,1
7/2/2003 9:30,26.9,1,63.7,1,26.3,1,25.1,1,23.9,1
7/2/2003 9:45,26.8,1,63.6,1,26.3,1,25,1,23.8,1
7/2/2003 10:00,26.9,1,63.5,1,26.3,1,25.1,1,23.8,1
7/2/2003 10:15,26.8,1,63.4,1,26.3,1,25.2,1,23.8,1
7/2/2003 10:30,26.8,1,63.1,1,26.2,1,25.1,1,23.9,1
7/2/2003 10:45,26.8,1,62.8,1,26.2,1,25.3,1,23.9,1
7/2/2003 11:00,26.8,1,62.7,1,26.2,1,25.4,1,23.9,1
7/2/2003 11:15,26.8,1,62.2,1,26.2,1,25.5,1,24.1,1
7/2/2003 11:30,26.9,1,62.7,1,26.2,1,25.5,1,24.1,1
7/2/2003 11:45,26.9,1,62.7,1,26.3,1,25.6,1,24.1,1
7/2/2003 12:00,26.9,1,63.1,1,26.3,1,25.7,1,24.1,1
7/2/2003 12:15,26.9,1,63.7,1,26.3,1,25.7,1,24.2,1
7/2/2003 12:30,26.9,1,63.9,1,26.3,1,25.8,1,24.2,1
7/2/2003 12:45,26.9,1,64.2,1,26.3,1,25.8,1,24.2,1
7/2/2003 13:00,26.9,1,64.4,1,26.3,1,25.8,1,24.2,1
7/2/2003 13:15,26.9,1,64.5,1,26.3,1,25.8,1,24.2,1
7/2/2003 13:30,26.9,1,64.7,1,26.3,1,25.9,1,24.2,1
7/2/2003 13:45,26.9,1,64.7,1,26.3,1,25.9,1,24.3,1
7/2/2003 14:00,26.9,1,64.8,1,26.3,1,25.9,1,24.3,1
7/2/2003 14:15,26.9,1,64.9,1,26.3,1,25.9,1,24.3,1
7/2/2003 14:30,26.9,1,65,1,26.3,1,25.9,1,24.3,1
7/2/2003 14:45,26.9,1,65,1,26.3,1,25.9,1,24.3,1
7/2/2003 15:00,26.9,1,65.1,1,26.3,1,25.9,1,24.4,1
7/2/2003 15:15,26.9,1,65.1,1,26.3,1,25.9,1,24.4,1
7/2/2003 15:30,26.9,1,64.7,1,26.3,1,25.9,1,24.6,1
7/2/2003 15:45,26.9,1,64.9,1,26.3,1,25.9,1,24.6,1
7/2/2003 16:00,26.8,1,65,1,26.3,1,25.9,1,24.6,1
7/2/2003 16:15,26.8,1,65.1,1,26.3,1,26,1,24.6,1
7/2/2003 16:30,26.8,1,65.1,1,26.3,1,26,1,24.7,1
7/2/2003 16:45,26.9,1,65.1,1,26.3,1,26,1,24.7,1
7/2/2003 17:00,26.7,1,62.8,1,26.3,1,25.9,1,24.7,1
7/2/2003 17:15,26.5,1,61.8,1,26.3,1,25.9,1,24.7,1
7/2/2003 17:30,26.6,1,60.6,1,26.2,1,25.9,1,24.7,1
7/2/2003 17:45,26.5,1,60.5,1,26.2,1,25.9,1,24.7,1
7/2/2003 18:00,26.6,1,60.1,1,26.2,1,25.9,1,24.7,1
7/2/2003 18:15,26.4,1,59.5,1,26.2,1,25.9,1,24.7,1
7/2/2003 18:30,26.2,1,58.9,1,26.2,1,25.9,1,24.8,1
7/2/2003 18:45,26.2,1,59.1,1,26.1,1,25.8,1,24.9,1
7/2/2003 19:00,26.2,1,59.5,1,26.1,1,25.7,1,24.9,1
7/2/2003 19:15,26.3,1,59.1,1,26.1,1,25.7,1,24.9,1
7/2/2003 19:30,26.6,1,59.6,1,26,1,25.7,1,24.9,1
7/2/2003 19:45,26.7,1,61.5,1,26.1,1,25.7,1,25,1
7/2/2003 20:00,26.5,1,60.9,1,26.1,1,25.7,1,25,1
7/2/2003 20:15,26.5,1,60.2,1,26.2,1,25.7,1,25,1
7/2/2003 20:30,26.5,1,60.4,1,26.2,1,25.7,1,25,1
7/2/2003 20:45,26.2,1,61.8,1,26.3,1,25.7,1,25,1
7/2/2003 21:00,26.4,1,61.3,1,26.4,1,25.8,1,25,1
7/2/2003 21:15,26.5,1,60.9,1,26.5,1,25.8,1,25,1
7/2/2003 21:30,26.6,1,61.8,1,26.5,1,25.9,1,25,1
7/2/2003 21:45,26.6,1,61,1,26.4,1,26,1,25,1
7/2/2003 22:00,26.6,1,63,1,26.4,1,26,1,25.1,1
7/2/2003 22:15,26.6,1,61.2,1,26.4,1,26,1,25.1,1
7/2/2003 22:30,26.7,1,61.1,1,26.4,1,26,1,24.8,1
7/2/2003 22:45,26.7,1,61.5,1,26.3,1,26.1,1,24.8,1
7/2/2003 23:00,26.7,1,61.4,1,26.3,1,26.1,1,24.8,1
7/2/2003 23:15,26.7,1,61.4,1,26.3,1,26.1,1,24.8,1
7/2/2003 23:30,26.8,1,62.5,1,26.3,1,26.1,1,24.8,1
7/2/2003 23:45,26.8,1,63.7,1,26.3,1,26.1,1,24.5,1
7/3/2003 0:00,26.8,1,64.1,1,26.3,1,26.1,1,24.5,1
7/3/2003 0:15,26.8,1,64.9,1,26.3,1,26.1,1,24.5,1
7/3/2003 0:30,26.8,1,65.5,1,26.3,1,26.1,1,24.5,1
7/3/2003 0:45,26.8,1,65.6,1,26.3,1,26.1,1,24.5,1
7/3/2003 1:00,26.8,1,65.8,1,26.3,1,26.1,1,24.6,1
7/3/2003 1:15,26.8,1,66.1,1,26.3,1,26.2,1,24.6,1
7/3/2003 1:30,26.7,1,66.3,1,26.3,1,26.2,1,24.6,1
7/3/2003 1:45,26.7,1,66.4,1,26.3,1,26.2,1,24.6,1
7/3/2003 2:00,26.7,1,66.3,1,26.3,1,26.2,1,24.6,1
7/3/2003 2:15,26.7,1,66.4,1,26.3,1,26.2,1,24.6,1
7/3/2003 2:30,26.7,1,66.6,1,26.3,1,26.2,1,24.6,1
7/3/2003 2:45,26.7,1,66.6,1,26.3,1,26.2,1,24.7,1
7/3/2003 3:00,26.7,1,66.6,1,26.3,1,26.2,1,24.7,1
7/3/2003 3:15,26.7,1,66.6,1,26.3,1,26.2,1,24.7,1
7/3/2003 3:30,26.7,1,67,1,26.3,1,26.2,1,24.7,1
7/3/2003 3:45,26.7,1,66.9,1,26.3,1,26.2,1,24.7,1
7/3/2003 4:00,26.7,1,67,1,26.3,1,26.2,1,24.3,1
7/3/2003 4:15,26.7,1,66.9,1,26.3,1,26.2,1,24.3,1
7/3/2003 4:30,26.7,1,66.9,1,26.3,1,26.2,1,24.3,1
7/3/2003 4:45,26.7,1,66.9,1,26.3,1,26.1,1,24.3,1
7/3/2003 5:00,26.7,1,66.9,1,26.3,1,26.1,1,24.4,1
7/3/2003 5:15,26.7,1,66.9,1,26.2,1,26.1,1,24.4,1
7/3/2003 5:30,26.7,1,66.4,1,26.2,1,26.1,1,24.2,1
7/3/2003 5:45,26.6,1,65.2,1,26.3,1,26.1,1,24.2,1
7/3/2003 6:00,26.6,1,64.6,1,26.2,1,26.1,1,24.2,1
7/3/2003 6:15,26.6,1,63.1,1,26.2,1,26,1,24.2,1
7/3/2003 6:30,26.6,1,62.8,1,26.2,1,26,1,24.2,1
7/3/2003 6:45,26.5,1,61.8,1,26.2,1,26,1,24.2,1
7/3/2003 7:00,26.5,1,62,1,26.2,1,25.9,1,24,1
7/3/2003 7:15,26.4,1,61.9,1,26.1,1,25.9,1,24,1
7/3/2003 7:30,26.4,1,62.4,1,26.1,1,25.8,1,24,1
7/3/2003 7:45,26.3,1,62.6,1,26.1,1,25.8,1,24,1
7/3/2003 8:00,26.4,1,61.4,1,26,1,25.8,1,24,1
7/3/2003 8:15,26.4,1,61.7,1,26,1,25.8,1,24,1
7/3/2003 8:30,26.1,1,63.1,1,26,1,25.7,1,24,1
7/3/2003 8:45,26.3,1,62.8,1,26,1,25.7,1,24,1
7/3/2003 9:00,26.3,1,63,1,26,1,25.7,1,24.1,1
7/3/2003 9:15,26.3,1,63.4,1,26,1,25.6,1,24.1,1
7/3/2003 9:30,26.3,1,63.7,1,26,1,25.6,1,24.1,1
7/3/2003 9:45,26.4,1,63.8,1,26,1,25.6,1,24.1,1
7/3/2003 10:00,26.4,1,64.1,1,26,1,25.6,1,24.1,1
7/3/2003 10:15,26.4,1,64.3,1,26,1,25.6,1,24.2,1
7/3/2003 10:30,26.4,1,64.4,1,26,1,25.6,1,24.2,1
7/3/2003 10:45,26.5,1,64.5,1,26,1,25.6,1,24.2,1
7/3/2003 11:00,26.5,1,64.6,1,26,1,25.6,1,24.2,1
7/3/2003 11:15,26.5,1,64.7,1,26,1,25.6,1,24.2,1
7/3/2003 11:30,26.5,1,64.6,1,26,1,25.6,1,24.2,1
7/3/2003 11:45,26.5,1,64.7,1,26,1,25.6,1,24.2,1
7/3/2003 12:00,26.5,1,64.7,1,26,1,25.7,1,24.2,1
7/3/2003 12:15,26.5,1,64.7,1,26,1,25.7,1,24.3,1
7/3/2003 12:30,26.6,1,64.8,1,26,1,25.7,1,24.3,1
7/3/2003 12:45,26.6,1,64.9,1,26,1,25.7,1,24.3,1
7/3/2003 13:00,26.6,1,64.9,1,26,1,25.7,1,24.3,1
7/3/2003 13:15,26.6,1,65,1,26,1,25.7,1,24.3,1
7/3/2003 13:30,26.6,1,65,1,26,1,25.7,1,24.4,1
7/3/2003 13:45,26.6,1,65,1,26,1,25.7,1,24.4,1
7/3/2003 14:00,26.6,1,65,1,26,1,25.8,1,24.4,1
7/3/2003 14:15,26.6,1,65,1,26.1,1,25.8,1,24.4,1
7/3/2003 14:30,26.6,1,65,1,26.1,1,25.8,1,24.4,1
7/3/2003 14:45,26.6,1,65.1,1,26.1,1,25.8,1,24.4,1
7/3/2003 15:00,26.6,1,65,1,26.1,1,25.8,1,24.5,1
7/3/2003 15:15,26.6,1,65,1,26.1,1,25.8,1,24.5,1
7/3/2003 15:30,26.5,1,65.1,1,26.1,1,25.8,1,24.5,1
7/3/2003 15:45,26.5,1,65.1,1,26.1,1,25.8,1,24.5,1
7/3/2003 16:00,26.5,1,65.1,1,26.1,1,25.8,1,24.5,1
7/3/2003 16:15,26.5,1,65.2,1,26.1,1,25.8,1,24.5,1
7/3/2003 16:30,26.5,1,64.3,1,26.1,1,25.8,1,24.6,1
7/3/2003 16:45,25.7,1,65.5,1,26,1,25.7,1,24.6,1
7/3/2003 17:00,25.5,1,67.3,1,25.9,1,25.6,1,24.6,1
7/3/2003 17:15,25.6,1,67.5,1,25.8,1,25.6,1,24.6,1
7/3/2003 17:30,25.6,1,67.4,1,25.7,1,25.6,1,24.6,1
7/3/2003 17:45,25.5,1,68.1,1,25.6,1,25.5,1,24.7,1
7/3/2003 18:00,25.5,1,69,1,25.5,1,25.5,1,24.7,1
7/3/2003 18:15,25.7,1,68.4,1,25.5,1,25.5,1,24.7,1
7/3/2003 18:30,25.8,1,68.7,1,25.6,1,25.5,1,24.7,1
7/3/2003 18:45,25.8,1,68,1,25.6,1,25.4,1,24.7,1
7/3/2003 19:00,25.6,1,68.3,1,25.5,1,25.5,1,24.7,1
7/3/2003 19:15,25.9,1,67.5,1,25.5,1,25.5,1,24.7,1
7/3/2003 19:30,26.1,1,67.2,1,25.5,1,25.6,1,24.7,1
7/3/2003 19:45,26.3,1,66.6,1,25.6,1,25.6,1,24.7,1
7/3/2003 20:00,26.3,1,66.6,1,25.7,1,25.6,1,24.7,1
7/3/2003 20:15,26.3,1,66.7,1,25.7,1,25.7,1,24.7,1
7/3/2003 20:30,26.3,1,66.5,1,25.8,1,25.7,1,24.7,1
7/3/2003 20:45,26.4,1,66.7,1,25.8,1,25.7,1,24.8,1
7/3/2003 21:00,26.4,1,67.2,1,25.9,1,25.7,1,24.8,1
7/3/2003 21:15,26.4,1,67.5,1,25.9,1,25.7,1,24.8,1
7/3/2003 21:30,26.4,1,67.8,1,25.9,1,25.7,1,24.8,1
7/3/2003 21:45,26.4,1,67.6,1,26,1,25.8,1,24.8,1
7/3/2003 22:00,26.5,1,67.7,1,26.1,1,25.8,1,24.5,1
7/3/2003 22:15,26.5,1,68,1,26.2,1,25.8,1,24.5,1
7/3/2003 22:30,26.5,1,68.1,1,26.3,1,25.9,1,24.5,1
7/3/2003 22:45,26.5,1,69.3,1,26.3,1,26,1,24.5,1
7/3/2003 23:00,26.4,1,71.8,1,26.4,1,26,1,24.6,1
7/3/2003 23:15,26.5,1,71.7,1,26.4,1,26.1,1,24.6,1
7/3/2003 23:30,26.5,1,71.4,1,26.4,1,26.1,1,24.6,1
7/3/2003 23:45,26.6,1,70.7,1,26.4,1,26.1,1,24.6,1
7/4/2003 0:00,26.6,1,70.6,1,26.4,1,26.1,1,24.6,1
7/4/2003 0:15,26.6,1,70.3,1,26.3,1,26.2,1,24.6,1
7/4/2003 0:30,26.6,1,70.1,1,26.3,1,26.2,1,24.7,1
7/4/2003 0:45,26.6,1,69.8,1,26.3,1,26.2,1,24.7,1
7/4/2003 1:00,26.6,1,69.8,1,26.3,1,26.2,1,24.7,1
7/4/2003 1:15,26.6,1,69.8,1,26.3,1,26.2,1,24.7,1
7/4/2003 1:30,26.6,1,69.9,1,26.3,1,26.2,1,24.7,1
7/4/2003 1:45,26.6,1,70.1,1,26.3,1,26.2,1,24.7,1
7/4/2003 2:00,26.6,1,70.1,1,26.3,1,26.2,1,24.7,1
7/4/2003 2:15,26.6,1,69.7,1,26.3,1,26.2,1,24.7,1
7/4/2003 2:30,26.6,1,69.7,1,26.2,1,26.2,1,24.8,1
7/4/2003 2:45,26.6,1,69.2,1,26.2,1,26.2,1,24.8,1
7/4/2003 3:00,26.6,1,69.4,1,26.2,1,26.2,1,24.8,1
7/4/2003 3:15,26.6,1,69.5,1,26.2,1,26.2,1,24.8,1
7/4/2003 3:30,26.6,1,69.7,1,26.2,1,26.2,1,24.8,1
7/4/2003 3:45,26.6,1,70,1,26.2,1,26.2,1,24.9,1
7/4/2003 4:00,26.7,1,70.1,1,26.3,1,26.2,1,24.8,1
7/4/2003 4:15,26.7,1,70.3,1,26.3,1,26.2,1,24.8,1
7/4/2003 4:30,26.7,1,70.5,1,26.3,1,26.2,1,24.8,1
7/4/2003 4:45,26.7,1,70.5,1,26.3,1,26.2,1,24.8,1
7/4/2003 5:00,26.7,1,70.9,1,26.3,1,26.2,1,24.5,1
7/4/2003 5:15,26.7,1,71.6,1,26.3,1,26.2,1,24.5,1
7/4/2003 5:30,26.7,1,71.4,1,26.3,1,26.2,1,24.5,1
7/4/2003 5:45,26.7,1,71.7,1,26.3,1,26.2,1,24.6,1
7/4/2003 6:00,26.7,1,71.7,1,26.3,1,26.2,1,24.6,1
7/4/2003 6:15,26.8,1,71.8,1,26.3,1,26.2,1,24.7,1
7/4/2003 6:30,26.8,1,72.3,1,26.3,1,26.2,1,24.9,1
7/4/2003 6:45,26.8,1,72.3,1,26.3,1,26.2,1,24.9,1
7/4/2003 7:00,26.8,1,72.6,1,26.3,1,26.2,1,24.9,1
7/4/2003 7:15,26.8,1,72.9,1,26.3,1,26.1,1,24.9,1
7/4/2003 7:30,26.7,1,73.5,1,26.3,1,26.1,1,24.9,1
7/4/2003 7:45,26.7,1,73.6,1,26.3,1,26,1,24.9,1
7/4/2003 8:00,26.7,1,73.5,1,26.3,1,26,1,24.9,1
7/4/2003 8:15,26.7,1,73.3,1,26.2,1,26,1,24.6,1
7/4/2003 8:30,26.6,1,73.2,1,26.2,1,25.9,1,24.6,1
7/4/2003 8:45,26.7,1,72.3,1,26.2,1,25.9,1,24.6,1
7/4/2003 9:00,26.7,1,72,1,26.2,1,25.8,1,24.6,1
7/4/2003 9:15,26.7,1,71.8,1,26.2,1,25.8,1,24.6,1
7/4/2003 9:30,26.8,1,71.2,1,26.2,1,25.8,1,24.6,1
7/4/2003 9:45,26.8,1,71.1,1,26.2,1,25.8,1,24.7,1
7/4/2003 10:00,26.8,1,71.7,1,26.2,1,25.8,1,24.7,1
7/4/2003 10:15,26.8,1,71.1,1,26.2,1,25.7,1,24.8,1
7/4/2003 10:30,26.8,1,72.2,1,26.2,1,25.8,1,24.4,1
7/4/2003 10:45,26.8,1,71.9,1,26.3,1,25.8,1,24.3,1
7/4/2003 11:00,26.8,1,71.4,1,26.3,1,25.7,1,24.3,1
7/4/2003 11:15,26.8,1,72,1,26.3,1,25.7,1,24.3,1
7/4/2003 11:30,26.7,1,72.4,1,26.3,1,25.7,1,24.3,1
7/4/2003 11:45,26.8,1,71.9,1,26.3,1,25.8,1,24.3,1
7/4/2003 12:00,26.8,1,71.7,1,26.3,1,25.8,1,24.3,1
7/4/2003 12:15,26.9,1,71.6,1,26.3,1,25.8,1,24.4,1
7/4/2003 12:30,26.9,1,71.4,1,26.3,1,25.9,1,24.4,1
7/4/2003 12:45,26.9,1,71.3,1,26.3,1,25.9,1,24.4,1
7/4/2003 13:00,26.9,1,71.3,1,26.3,1,25.9,1,24.4,1
7/4/2003 13:15,26.9,1,71.1,1,26.3,1,25.9,1,24.4,1
7/4/2003 13:30,26.9,1,71.2,1,26.3,1,26,1,24.4,1
7/4/2003 13:45,26.9,1,71.1,1,26.3,1,26,1,24.4,1
7/4/2003 14:00,26.9,1,71.1,1,26.3,1,26,1,24.5,1
7/4/2003 14:15,26.9,1,71.1,1,26.3,1,26,1,24.5,1
7/4/2003 14:30,26.9,1,71.1,1,26.3,1,26.1,1,24.5,1
7/4/2003 14:45,26.9,1,71.1,1,26.3,1,26.1,1,24.5,1
7/4/2003 15:00,26.9,1,71.1,1,26.3,1,26.1,1,24.5,1
7/4/2003 15:15,26.9,1,70.8,1,26.3,1,26.1,1,24.6,1
7/4/2003 15:30,27,1,70.8,1,26.3,1,26.1,1,24.6,1
7/4/2003 15:45,27,1,70.9,1,26.3,1,26.1,1,24.6,1
7/4/2003 16:00,27,1,70.9,1,26.4,1,26.1,1,24.6,1
7/4/2003 16:15,26.9,1,70.9,1,26.4,1,26.1,1,24.6,1
7/4/2003 16:30,27,1,70.6,1,26.4,1,26.2,1,24.7,1
7/4/2003 16:45,27,1,70.6,1,26.4,1,26.2,1,24.7,1
7/4/2003 17:00,27,1,70.6,1,26.4,1,26.2,1,24.7,1
7/4/2003 17:15,27,1,71.1,1,26.4,1,26.2,1,24.7,1
7/4/2003 17:30,27,1,71,1,26.4,1,26.2,1,24.7,1
7/4/2003 17:45,27,1,71.2,1,26.4,1,26.2,1,24.7,1
7/4/2003 18:00,26.9,1,70.8,1,26.4,1,26.2,1,24.7,1
7/4/2003 18:15,26.9,1,71,1,26.4,1,26.2,1,24.8,1
7/4/2003 18:30,27,1,70.8,1,26.4,1,26.2,1,24.8,1
7/4/2003 18:45,27,1,70.9,1,26.4,1,26.2,1,24.8,1
7/4/2003 19:00,27,1,70.9,1,26.5,1,26.2,1,24.8,1
7/4/2003 19:15,26.7,1,69.4,1,26.6,1,26.2,1,24.9,1
7/4/2003 19:30,26.6,1,69.7,1,26.6,1,26.2,1,24.9,1
7/4/2003 19:45,26.5,1,68.7,1,26.7,1,26.3,1,24.9,1
7/4/2003 20:00,26.5,1,68.4,1,26.7,1,26.4,1,24.9,1
7/4/2003 20:15,26.8,1,68.4,1,26.7,1,26.3,1,24.9,1
7/4/2003 20:30,27,1,68,1,26.7,1,26.4,1,25,1
7/4/2003 20:45,27,1,67,1,26.7,1,26.4,1,24.9,1
7/4/2003 21:00,26.9,1,66.7,1,26.7,1,26.3,1,24.9,1
7/4/2003 21:15,26.9,1,66.5,1,26.7,1,26.3,1,25,1
7/4/2003 21:30,26.9,1,66.3,1,26.7,1,26.3,1,25,1
7/4/2003 21:45,26.9,1,65.9,1,26.8,1,26.3,1,25,1
7/4/2003 22:00,26.9,1,66.2,1,26.8,1,26.3,1,25,1
7/4/2003 22:15,27,1,67.1,1,26.8,1,26.3,1,24.9,1
7/4/2003 22:30,27,1,68.1,1,26.8,1,26.4,1,25,1
7/4/2003 22:45,26.9,1,68.4,1,26.8,1,26.4,1,25,1
7/4/2003 23:00,26.9,1,68,1,26.8,1,26.4,1,25,1
7/4/2003 23:15,26.8,1,67.3,1,26.7,1,26.4,1,25,1
7/4/2003 23:30,26.9,1,68.5,1,26.7,1,26.4,1,25,1
7/4/2003 23:45,26.9,1,68.7,1,26.7,1,26.5,1,25,1
7/5/2003 0:00,27,1,68.9,1,26.8,1,26.5,1,25,1
7/5/2003 0:15,27,1,68.9,1,26.8,1,26.5,1,25,1
7/5/2003 0:30,27,1,69,1,26.8,1,26.5,1,25.1,1
7/5/2003 0:45,27,1,69.1,1,26.9,1,26.5,1,25.1,1
7/5/2003 1:00,27,1,69.1,1,26.9,1,26.5,1,25.1,1
7/5/2003 1:15,27,1,69,1,27,1,26.5,1,25.1,1
7/5/2003 1:30,27,1,69,1,27,1,26.5,1,25.1,1
7/5/2003 1:45,27,1,68.7,1,26.9,1,26.6,1,25.1,1
7/5/2003 2:00,26.9,1,68,1,26.9,1,26.6,1,25.1,1
7/5/2003 2:15,26.9,1,67.9,1,26.9,1,26.6,1,25.1,1
7/5/2003 2:30,26.9,1,67.5,1,26.8,1,26.6,1,25.1,1
7/5/2003 2:45,26.9,1,67.3,1,26.8,1,26.6,1,25.1,1
7/5/2003 3:00,26.9,1,67.3,1,26.7,1,26.5,1,25.1,1
7/5/2003 3:15,26.9,1,67,1,26.7,1,26.5,1,25.1,1
7/5/2003 3:30,26.8,1,66.8,1,26.6,1,26.5,1,25.2,1
7/5/2003 3:45,26.8,1,66.8,1,26.6,1,26.5,1,25.2,1
7/5/2003 4:00,26.8,1,66.7,1,26.6,1,26.5,1,25.2,1
7/5/2003 4:15,26.8,1,66.6,1,26.6,1,26.5,1,25.2,1
7/5/2003 4:30,26.8,1,66.5,1,26.5,1,26.5,1,25.2,1
7/5/2003 4:45,26.8,1,66.6,1,26.5,1,26.5,1,25.2,1
7/5/2003 5:00,26.8,1,66.5,1,26.5,1,26.5,1,25.3,1
7/5/2003 5:15,26.8,1,66.6,1,26.5,1,26.5,1,25.3,1
7/5/2003 5:30,26.8,1,66.5,1,26.5,1,26.4,1,25.3,1
7/5/2003 5:45,26.8,1,66.4,1,26.4,1,26.4,1,25.3,1
7/5/2003 6:00,26.8,1,66.4,1,26.4,1,26.4,1,25.3,1
7/5/2003 6:15,26.9,1,66.6,1,26.4,1,26.4,1,25.3,1
7/5/2003 6:30,26.9,1,66.5,1,26.4,1,26.4,1,24.9,1
7/5/2003 6:45,26.8,1,66.2,1,26.4,1,26.3,1,24.9,1
7/5/2003 7:00,26.8,1,66.3,1,26.4,1,26.3,1,24.9,1
7/5/2003 7:15,26.8,1,65.8,1,26.4,1,26.2,1,24.9,1
7/5/2003 7:30,26.8,1,65.9,1,26.4,1,26.2,1,24.9,1
7/5/2003 7:45,26.8,1,65.3,1,26.4,1,26.2,1,24.9,1
7/5/2003 8:00,26.8,1,65.2,1,26.3,1,26.1,1,24.9,1
7/5/2003 8:15,26.8,1,65.1,1,26.3,1,26.1,1,25,1
7/5/2003 8:30,26.8,1,64.7,1,26.3,1,26.1,1,25,1
7/5/2003 8:45,26.8,1,64.1,1,26.3,1,26.1,1,24.9,1
7/5/2003 9:00,26.9,1,64.1,1,26.3,1,26.1,1,24.9,1
7/5/2003 9:15,26.8,1,63.2,1,26.3,1,26.1,1,24.9,1
7/5/2003 9:30,26.8,1,62.7,1,26.3,1,26.1,1,24.7,1
7/5/2003 9:45,26.8,1,62.4,1,26.3,1,26,1,24.7,1
7/5/2003 10:00,26.8,1,59.1,1,26.3,1,25.9,1,24.7,1
7/5/2003 10:15,26.9,1,60,1,26.2,1,25.9,1,24.7,1
7/5/2003 10:30,26.9,1,59.5,1,26.2,1,25.9,1,24.7,1
7/5/2003 10:45,26.8,1,57.9,1,26.2,1,25.9,1,24.7,1
7/5/2003 11:00,26.8,1,58.6,1,26.2,1,26,1,24.7,1
7/5/2003 11:15,26.8,1,53.1,1,26.1,1,26,1,24.8,1
7/5/2003 11:30,26.8,1,55.9,1,26.2,1,26.1,1,24.8,1
7/5/2003 11:45,26.8,1,51.8,1,26.2,1,26.1,1,24.8,1
7/5/2003 12:00,27.1,1,51.8,1,26.3,1,26.2,1,24.8,1
7/5/2003 12:15,27.4,1,54.6,1,26.4,1,26.4,1,24.8,1
7/5/2003 12:30,27.5,1,55.4,1,26.5,1,26.5,1,24.9,1
7/5/2003 12:45,27.6,1,53.4,1,26.6,1,26.7,1,24.9,1
7/5/2003 13:00,27.6,1,52.1,1,26.6,1,26.8,1,24.9,1
7/5/2003 13:15,27.8,1,52,1,26.7,1,26.9,1,24.9,1
7/5/2003 13:30,27.8,1,50.9,1,26.7,1,27,1,25,1
7/5/2003 13:45,27.8,1,57.5,1,26.7,1,27,1,25,1
7/5/2003 14:00,27.8,1,61.9,1,26.8,1,27,1,25,1
7/5/2003 14:15,27.6,1,62.7,1,26.8,1,26.9,1,25,1
7/5/2003 14:30,27.7,1,62.4,1,26.9,1,26.9,1,25,1
7/5/2003 14:45,27.5,1,62.7,1,26.9,1,26.9,1,25,1
7/5/2003 15:00,27.4,1,62,1,26.9,1,26.9,1,25,1
7/5/2003 15:15,27.3,1,61.9,1,26.9,1,26.9,1,25.1,1
7/5/2003 15:30,27.2,1,61.4,1,26.9,1,26.8,1,25.1,1
7/5/2003 15:45,27.1,1,60.6,1,27,1,26.8,1,25.1,1
7/5/2003 16:00,26.9,1,59.3,1,27,1,26.7,1,25.1,1
7/5/2003 16:15,26.6,1,59.7,1,26.9,1,26.6,1,25.1,1
7/5/2003 16:30,26.8,1,60.8,1,26.8,1,26.5,1,25.2,1
7/5/2003 16:45,26.6,1,60.7,1,26.8,1,26.4,1,25.2,1
7/5/2003 17:00,26.6,1,59.3,1,26.8,1,26.4,1,25.5,1
7/5/2003 17:15,26.5,1,58.3,1,26.8,1,26.3,1,25.3,1
7/5/2003 17:30,26.3,1,56,1,26.7,1,26.3,1,25.3,1
7/5/2003 17:45,26.4,1,57.7,1,26.6,1,26.2,1,25.4,1
7/5/2003 18:00,26.6,1,58,1,26.5,1,26.2,1,25.5,1
7/5/2003 18:15,26.8,1,58.1,1,26.5,1,26.2,1,25.5,1
7/5/2003 18:30,26.8,1,58.3,1,26.5,1,26.1,1,25.5,1
7/5/2003 18:45,26.8,1,58.3,1,26.5,1,26.1,1,25.5,1
7/5/2003 19:00,26.8,1,59,1,26.6,1,26.1,1,25.6,1
7/5/2003 19:15,26.8,1,59,1,26.7,1,26.1,1,25.6,1
7/5/2003 19:30,26.8,1,58.6,1,26.7,1,26.1,1,25.6,1
7/5/2003 19:45,26.8,1,58.7,1,26.8,1,26.2,1,25.6,1
7/5/2003 20:00,26.9,1,58.9,1,26.8,1,26.3,1,25.6,1
7/5/2003 20:15,26.9,1,59.2,1,26.8,1,26.4,1,25.6,1
7/5/2003 20:30,26.9,1,61,1,26.8,1,26.5,1,25.6,1
7/5/2003 20:45,26.9,1,59.8,1,26.8,1,26.6,1,25.6,1
7/5/2003 21:00,27,1,59.9,1,26.8,1,26.7,1,25.6,1
7/5/2003 21:15,27.1,1,61.7,1,26.8,1,26.7,1,25.6,1
7/5/2003 21:30,27,1,61.1,1,26.8,1,26.6,1,25.6,1
7/5/2003 21:45,26.8,1,60.6,1,26.7,1,26.7,1,25.6,1
7/5/2003 22:00,26.8,1,59.1,1,26.7,1,26.7,1,25.1,1
7/5/2003 22:15,26.8,1,58.3,1,26.6,1,26.7,1,25.1,1
7/5/2003 22:30,26.8,1,57.6,1,26.6,1,26.6,1,25.1,1
7/5/2003 22:45,26.8,1,57.4,1,26.5,1,26.5,1,25.1,1
7/5/2003 23:00,26.8,1,57,1,26.5,1,26.5,1,25.1,1
7/5/2003 23:15,26.8,1,56.7,1,26.5,1,26.5,1,25.1,1
7/5/2003 23:30,26.8,1,57.4,1,26.4,1,26.4,1,24.9,1
7/5/2003 23:45,26.8,1,58.6,1,26.4,1,26.4,1,24.9,1
7/6/2003 0:00,26.9,1,59.5,1,26.4,1,26.4,1,24.9,1